[[{"header":{"parameterUnit":"m.s-1","parameterCategory":1,"la1":30.2991,"la2":30.254,"lo1":-89.0895,"lo2":-89.0444,"dy":0.0017,"dx":0.0017,"nx":28,"ny":28,"refTime":"2025-08-01T03:00:00:Z","depth":0,"parameterNumber":2,"parameterNumberName":"U-component_of_WINDS"},"data":[0,0,0,0,0,0,0,0,0,0,0,0,0,0,0,0,0,0,0,0,0,0,0,0,0,0,0,0,0,0,0,0,0,0,0,0,0,0,0,0,0,0,0,0,0,0,0,0,0,0,0,0,0,0,0,0,0,0,2.9888,2.9889,0,2.997,2.9971,2.9972,2.9922,2.9919,2.9917,2.9915,3.0003,3.0008,3.0012,0,0,0,0,0,0,0,0,0,0,0,0,0,2.9692,2.9696,2.9888,2.9889,2.989,2.997,2.9971,2.9972,2.9922,2.9919,2.9916,2.9914,3.0002,3.0007,3.0012,0,0,0,0,0,0,0,0,0,0,0,0,0,2.9776,2.9697,2.9887,2.9874,2.9874,2.9969,2.9971,2.9972,2.9923,2.9919,2.9916,2.9912,3.0,3.0006,3.0013,3.0127,0,0,3.0034,3.0037,0,0,0,0,0,0,0,0,2.9771,2.9783,2.9875,2.9876,2.9875,2.9932,2.9934,3.0024,2.9924,2.9905,2.9915,2.9911,2.9983,2.9991,3.0014,3.0131,3.0135,3.0035,3.0039,3.0042,3.0044,0,0,0,0,0,0,0,2.9765,2.9779,2.992,2.9877,2.9877,2.9866,2.9874,2.9951,2.9963,2.9906,2.9902,2.9913,2.9982,3.0008,3.0016,3.0136,3.0035,3.0041,3.0045,3.0048,3.0351,3.0355,0,0,0,0,0,0,2.976,2.9775,2.9918,2.9923,2.9813,2.9872,2.9881,2.9917,2.9962,2.9965,2.9916,2.991,2.9998,3.0008,3.0019,3.0154,3.0042,3.0048,3.0052,3.0347,3.0352,3.0356,0,0,0,0,0,0,2.9756,2.9773,2.9914,2.9848,2.9865,2.9879,2.9921,2.9921,2.9946,2.9969,2.9971,2.9939,2.9995,3.0009,3.01,3.0157,3.0051,3.0058,3.0343,3.0349,3.0354,3.0427,0,0,0,0,0,0,2.9751,2.9772,2.9815,2.9849,2.9869,2.9993,2.9924,2.9925,2.9958,2.9951,2.9992,2.9995,2.9993,3.009,3.0107,3.0164,3.0063,3.0338,3.0345,3.0352,3.042,3.0435,3.0448,0,0,0,0,0,2.9744,2.9833,2.9817,2.9834,2.9922,2.9997,3.0008,3.0003,2.9963,3.0006,3.0021,2.9994,3.0148,3.01,3.0119,3.0179,3.0334,3.0343,3.0352,3.0413,3.0432,3.0447,0,0,0,0,0,0,2.9806,2.9837,2.982,2.9922,2.9957,2.9988,3.0042,3.0023,3.0071,3.0063,3.0056,3.0065,3.016,3.0179,3.0125,3.0291,3.0235,3.0248,3.0275,3.0293,3.0307,3.03,3.0069,0,0,0,0,0,2.9831,2.9888,2.9913,3.0001,3.0019,3.0028,3.0061,3.0054,3.009,3.0105,3.0126,3.0164,3.022,3.0258,3.0312,3.0423,3.0431,3.0473,3.0487,3.0499,3.051,3.057,3.0589,3.0386,3.0386,3.0385,0,0,2.9885,2.9909,2.9945,3.0014,3.004,3.01,3.0041,3.0107,3.0152,3.0115,3.0202,3.0219,3.0261,3.0362,3.0408,3.0381,3.0568,3.051,3.0519,3.0524,3.0581,3.06,3.0617,3.0392,3.0391,3.039,0,0,3.0012,3.0036,3.0112,3.0139,3.0179,3.0184,3.0203,3.0237,3.0246,3.0333,3.0307,3.0361,3.0459,3.0489,3.0518,3.0658,3.0635,3.0676,3.0748,3.0807,3.0823,3.0837,3.0886,3.0904,3.0687,3.0687,3.0687,0,3.0074,3.0162,3.0154,3.0222,3.0253,3.0221,3.0298,3.0326,3.0382,3.0405,3.0373,3.0495,3.0521,3.0629,3.0663,3.0687,3.0708,3.067,3.0821,3.0835,3.0848,3.0895,3.0914,3.0692,3.0691,3.0691,3.069,0,3.0235,3.0297,3.0354,3.0407,3.0445,3.0517,3.0521,3.0561,3.0551,3.056,3.0649,3.0679,3.0738,3.0763,3.0755,3.0871,3.0852,3.0821,3.0764,3.0872,3.0916,3.0934,3.0698,3.0696,3.0695,3.0694,0,0,3.0403,3.0451,3.0472,3.0495,3.0537,3.0586,3.0657,3.0713,3.0747,3.0788,3.0848,3.0932,3.0903,3.0935,3.093,3.0982,3.109,3.0944,3.0945,3.097,3.1219,3.1242,3.1262,3.1076,3.1079,3.1082,3.1215,0,3.0532,3.0655,3.065,3.0766,3.0823,3.0794,3.0857,3.089,3.0901,3.0952,3.0965,3.1024,3.0982,3.1001,3.1051,3.1066,3.114,3.1057,3.1132,3.1135,3.1121,3.1286,3.131,3.1434,3.1233,3.1236,3.1238,0,3.0699,3.0743,3.0864,3.0897,3.0921,3.0977,3.1028,3.1077,3.1115,3.112,3.1156,3.1143,3.1216,3.1158,3.126,3.1203,3.1234,3.1247,3.1252,3.1258,3.1192,3.1296,3.1474,3.1492,3.1265,3.1263,3.1261,0,3.0808,3.0898,3.0982,3.1003,3.1045,3.1085,3.1104,3.1138,3.1172,3.1218,3.124,3.1294,3.1324,3.1367,3.1369,3.1327,3.1472,3.1414,3.1478,3.1478,3.1509,3.1507,3.1694,3.1531,3.1531,3.153,3.153,0,3.0952,3.1027,3.1031,3.1083,3.1166,3.1161,3.1244,3.126,3.129,3.1345,3.1325,3.1377,3.1377,3.1431,3.1434,3.1518,3.1532,3.1538,3.1537,3.1539,3.1538,3.1558,3.155,3.1535,3.1534,3.1533,3.1532,0,3.1088,3.1094,3.1183,3.1215,3.1224,3.1284,3.1312,3.1362,3.1371,3.1441,3.1457,3.1472,3.1534,3.1541,3.1614,3.1615,3.1717,3.1707,3.1703,3.1701,3.1765,3.1758,3.1971,3.1998,3.1818,3.182,3.1821,0,3.1179,3.1235,3.1273,3.1308,3.1329,3.1385,3.1419,3.1417,3.1454,3.1502,3.1546,3.1606,3.1653,3.1754,3.1773,3.1828,3.182,3.1891,3.1828,3.1828,3.182,3.1817,3.1822,3.1902,3.1904,3.1906,3.1907,0,3.1339,3.1339,3.1389,3.144,3.1482,3.1522,3.156,3.159,3.1593,3.1636,3.1698,3.1735,3.1809,3.1869,3.1924,3.1946,3.1928,3.1927,3.1945,3.1946,3.1941,3.1944,3.1735,3.1922,3.192,3.1919,3.1919,3.1918,3.1455,3.1504,3.1538,3.1594,3.1622,3.1658,3.1706,3.1721,3.1773,3.1831,3.1828,3.1897,3.1934,3.2006,3.2031,3.2086,3.2063,3.2089,3.2095,3.2101,3.2107,3.1933,3.2097,3.2096,3.2096,3.2096,3.2095,0,3.1613,3.1634,3.1686,3.1739,3.1784,3.1762,3.1803,3.1842,3.1903,3.1938,3.1985,3.2058,3.2116,3.2139,3.2196,3.2236,3.2229,3.2251,3.2248,3.2253,3.2125,3.2104,3.2256,3.2256,3.2256,3.2255,3.2255,3.2255,3.1701,3.1782,3.1787,3.1883,3.1903,3.1969,3.1995,3.2029,3.2057,3.2138,3.2186,3.22,3.2231,3.229,3.2343,3.2349,3.2371,3.2396,3.2398,3.2278,3.2262,3.2246,3.2226,3.2401,3.2401,3.2521,3.2522,3.2523]},{"header":{"parameterUnit":"m.s-1","parameterCategory":1,"la1":30.2991,"la2":30.254,"lo1":-89.0895,"lo2":-89.0444,"dy":0.0017,"dx":0.0017,"nx":28,"ny":28,"refTime":"2025-08-01T03:00:00:Z","depth":0,"parameterNumber":3,"parameterNumberName":"V-component_of_WINDS"},"data":[0,0,0,0,0,0,0,0,0,0,0,0,0,0,0,0,0,0,0,0,0,0,0,0,0,0,0,0,0,0,0,0,0,0,0,0,0,0,0,0,0,0,0,0,0,0,0,0,0,0,0,0,0,0,0,0,0,0,3.5004,3.5004,0,3.5042,3.5042,3.5043,3.503,3.5029,3.5028,3.5027,3.5061,3.5062,3.5064,0,0,0,0,0,0,0,0,0,0,0,0,0,3.4913,3.4915,3.5004,3.5004,3.5005,3.5042,3.5042,3.5043,3.503,3.5029,3.5028,3.5027,3.506,3.5062,3.5064,0,0,0,0,0,0,0,0,0,0,0,0,0,3.4952,3.4916,3.5004,3.5003,3.5003,3.5042,3.5042,3.5043,3.503,3.5029,3.5028,3.5027,3.5059,3.5062,3.5064,3.5104,0,0,3.5072,3.5073,0,0,0,0,0,0,0,0,3.495,3.4955,3.5002,3.5003,3.5003,3.503,3.5023,3.5063,3.503,3.502,3.5027,3.5026,3.5051,3.5054,3.5064,3.5106,3.5107,3.5072,3.5073,3.5075,3.5075,0,0,0,0,0,0,0,3.4947,3.4954,3.5019,3.5003,3.5004,3.4999,3.5003,3.503,3.5041,3.5021,3.502,3.5025,3.5051,3.5061,3.5064,3.5107,3.5072,3.5074,3.5076,3.5077,3.5183,3.5184,0,0,0,0,0,0,3.4945,3.4952,3.5017,3.502,3.4973,3.5001,3.5006,3.5023,3.5041,3.5043,3.5026,3.5024,3.5058,3.5062,3.5066,3.5113,3.5075,3.5077,3.5078,3.5182,3.5183,3.5185,0,0,0,0,0,0,3.4943,3.4951,3.5016,3.4986,3.4993,3.5004,3.5023,3.5024,3.5034,3.5045,3.5047,3.5035,3.5057,3.5062,3.5095,3.5114,3.5078,3.508,3.518,3.5182,3.5184,3.5208,0,0,0,0,0,0,3.4941,3.4951,3.4967,3.4986,3.4995,3.5046,3.5024,3.5026,3.5039,3.5038,3.5054,3.5056,3.5056,3.5091,3.5097,3.5117,3.5082,3.5179,3.5181,3.5184,3.5206,3.5211,3.5215,0,0,0,0,0,3.4938,3.4971,3.4968,3.4976,3.5016,3.5047,3.5052,3.5054,3.5041,3.5057,3.5064,3.5055,3.5111,3.5095,3.5101,3.5122,3.5177,3.518,3.5183,3.5204,3.521,3.5215,0,0,0,0,0,0,3.4951,3.4973,3.497,3.5011,3.5028,3.5045,3.5065,3.5061,3.508,3.5077,3.5077,3.5081,3.5114,3.5121,3.5103,3.5161,3.5142,3.5146,3.5155,3.5161,3.5166,3.5162,3.5084,0,0,0,0,0,3.496,3.4985,3.5002,3.5037,3.5045,3.5054,3.5067,3.5068,3.5084,3.509,3.51,3.5114,3.5135,3.5148,3.5168,3.5207,3.521,3.5224,3.5229,3.5233,3.5236,3.5257,3.5263,3.5195,3.5195,3.5195,0,0,3.4976,3.4991,3.5007,3.504,3.5053,3.5077,3.506,3.5086,3.5104,3.5094,3.5126,3.5133,3.5149,3.5185,3.5201,3.5192,3.5256,3.5237,3.524,3.5241,3.526,3.5267,3.5272,3.5197,3.5197,3.5196,0,0,3.5018,3.5033,3.5063,3.5077,3.5098,3.5104,3.5111,3.5129,3.5135,3.5167,3.516,3.518,3.5216,3.5228,3.5239,3.5287,3.5279,3.5293,3.5317,3.5337,3.5342,3.5347,3.5363,3.5369,3.5297,3.5297,3.5297,0,3.5035,3.5074,3.5079,3.5107,3.5121,3.5115,3.5145,3.5157,3.5182,3.5191,3.5181,3.5227,3.5237,3.5275,3.5287,3.5296,3.5303,3.529,3.5341,3.5346,3.535,3.5366,3.5372,3.5298,3.5298,3.5298,3.5298,0,3.5093,3.512,3.5142,3.5169,3.5186,3.5214,3.5221,3.5237,3.5236,3.5243,3.5275,3.5288,3.531,3.532,3.5318,3.5358,3.5351,3.5341,3.5322,3.5358,3.5373,3.5379,3.53,3.53,3.5299,3.5299,0,0,3.5143,3.5174,3.5182,3.5194,3.5217,3.5237,3.5265,3.5289,3.5302,3.532,3.5342,3.5373,3.5365,3.5377,3.5377,3.5394,3.543,3.5382,3.5382,3.539,3.5474,3.548,3.5487,3.5426,3.5427,3.5428,3.5472,0,3.5186,3.5238,3.5243,3.5288,3.5312,3.5308,3.5332,3.5348,3.5355,3.5375,3.5381,3.5404,3.5391,3.5398,3.5416,3.5422,3.5447,3.5419,3.5445,3.5446,3.544,3.5495,3.5502,3.5542,3.5478,3.5479,3.548,0,3.5243,3.5265,3.5313,3.5334,3.5344,3.5366,3.5388,3.5408,3.5426,3.5429,3.5444,3.5442,3.5469,3.545,3.5486,3.5467,3.5478,3.5483,3.5484,3.5485,3.5464,3.5496,3.5556,3.5561,3.5489,3.5488,3.5487,0,3.5274,3.5315,3.5349,3.536,3.5385,3.54,3.5411,3.5427,3.5442,3.5461,3.547,3.5491,3.5502,3.5518,3.5521,3.5507,3.5557,3.5538,3.5559,3.5559,3.5568,3.5568,3.5629,3.5578,3.5577,3.5577,3.5577,0,3.532,3.5349,3.5364,3.5384,3.5417,3.5422,3.5453,3.5463,3.5478,3.5499,3.5496,3.5516,3.552,3.5539,3.5542,3.5571,3.5576,3.5578,3.5578,3.5578,3.5578,3.5584,3.5581,3.5579,3.5579,3.5578,3.5578,0,3.5359,3.537,3.5407,3.5428,3.5434,3.5457,3.5474,3.5493,3.5501,3.5528,3.5534,3.5545,3.5568,3.5574,3.56,3.5602,3.5636,3.5634,3.5631,3.5631,3.5651,3.5649,3.5718,3.5726,3.567,3.5671,3.5671,0,3.5387,3.541,3.5435,3.545,3.5462,3.5487,3.5502,3.5508,3.5524,3.5546,3.5562,3.5586,3.5605,3.5643,3.5651,3.5672,3.5669,3.5692,3.5672,3.5671,3.5669,3.5667,3.5669,3.5696,3.5696,3.5697,3.5697,0,3.5436,3.5441,3.5464,3.549,3.5509,3.5529,3.5547,3.556,3.5568,3.5586,3.5611,3.5626,3.5656,3.5678,3.57,3.5708,3.5704,3.5704,3.5709,3.5709,3.5706,3.5707,3.564,3.5702,3.5701,3.5701,3.5701,3.57,3.5469,3.5489,3.5511,3.5537,3.5553,3.5571,3.559,3.5601,3.5623,3.5649,3.5651,3.5678,3.5695,3.5723,3.5733,3.5753,3.5746,3.5755,3.5756,3.5758,3.576,3.5704,3.5757,3.5757,3.5757,3.5757,3.5757,0,3.5517,3.5531,3.5556,3.5583,3.5604,3.5601,3.5622,3.5639,3.5664,3.5681,3.5701,3.573,3.5752,3.5764,3.5786,3.58,3.5798,3.5805,3.5803,3.5805,3.5765,3.5758,3.5806,3.5806,3.5806,3.5806,3.5806,3.5806,3.5544,3.5578,3.5586,3.5627,3.564,3.5669,3.5681,3.5698,3.5712,3.5745,3.5765,3.5773,3.5788,3.5811,3.5832,3.5834,3.5842,3.585,3.5851,3.5813,3.5808,3.5803,3.5796,3.5852,3.5852,3.589,3.589,3.589]}]]